Weather History for Fort Myers, FL

Change the Weather History Date:

Thursday, December 20, 2012

  Actual Average Record
Temperature  
Mean Temperature 72 °F 66 °F  
Max Temperature 82 °F 76 °F 87 °F (1990)
Min Temperature 61 °F 56 °F 33 °F (1981)
Degree Days  
Heating Degree Days 0 3  
Month to date heating degree days 0 38  
Since 1 July heating degree days 15 56  
Cooling Degree Days 7 4  
Month to date cooling degree days 141 87  
Year to date cooling degree days 4354 3950  
Growing Degree Days 22 (Base 50)    
Moisture  
Dew Point 63 °F    
Average Humidity 75    
Maximum Humidity 93    
Minimum Humidity 51    
Precipitation  
Precipitation 0.00 in 0.06 in 1.04 in (1925)
Month to date precipitation 1.87 1.03  
Year to date precipitation 49.30 55.25  
Sea Level Pressure  
Sea Level Pressure 30.04 in    
Wind  
Wind Speed 6 mph (South)    
Max Wind Speed 16 mph    
Max Gust Speed 22 mph    
Visibility 10 miles    
Events      
T = Trace of Precipitation, MM = Missing Value Source: NWS Daily Summary

Daily Weather History Graph

Daily Weather History Graph

Search for Another Location

Airport:

Trip Planner

Search our weather history database for the weather conditions in past years. The results will help you decide how hot, cold, wet, or windy it might be!

Date:

Astronomy

Dec. 20, 2012 Rise Set
Actual Time 7:11 AM EST 5:39 PM EST
Civil Twilight 6:45 AM EST 6:04 PM EST
Nautical Twilight 6:16 AM EST 6:33 PM EST
Astronomical Twilight 5:48 AM EST 7:02 PM EST
Moon 12:30 PM EST (12/20) 12:26 AM EST (12/20)
Length of Visible Light 11h 19m
Length of Day
10h 28m
First Quarter, 55% of the Moon is Illuminated
Dec 20
First Quarter
Dec 28
Full
Jan 4
Last Quarter
Jan 11
New
Jan 18
First Quarter

Hourly Weather History & Observations

Time (EST) Temp. Heat Index Dew Point Humidity Pressure Visibility Wind Dir Wind Speed Gust Speed Precip Events Conditions
12:53 AM 62.1 °F - 55.0 °F 78% 30.07 in 10.0 mi Calm Calm - N/A   Clear
1:53 AM 62.1 °F - 55.9 °F 80% 30.06 in 10.0 mi SE 3.5 mph - N/A   Clear
2:53 AM 62.1 °F - 57.0 °F 84% 30.06 in 10.0 mi Calm Calm - N/A   Partly Cloudy
3:53 AM 62.1 °F - 59.0 °F 90% 30.06 in 10.0 mi SE 3.5 mph - N/A   Clear
4:53 AM 63.0 °F - 60.1 °F 90% 30.05 in 10.0 mi SE 3.5 mph - N/A   Clear
5:53 AM 64.0 °F - 62.1 °F 93% 30.05 in 10.0 mi SSE 4.6 mph - N/A   Clear
6:53 AM 64.0 °F - 62.1 °F 93% 30.06 in 10.0 mi SSE 3.5 mph - N/A   Clear
7:53 AM 64.9 °F - 62.1 °F 90% 30.07 in 10.0 mi ESE 3.5 mph - N/A   Clear
8:53 AM 71.1 °F - 64.0 °F 78% 30.09 in 10.0 mi SE 3.5 mph - N/A   Clear
9:53 AM 75.0 °F - 64.0 °F 69% 30.10 in 10.0 mi SE 5.8 mph - N/A   Clear
10:53 AM 79.0 °F - 64.0 °F 60% 30.09 in 10.0 mi South 9.2 mph - N/A   Clear
11:53 AM 81.0 °F 82.5 °F 64.0 °F 56% 30.06 in 10.0 mi South 8.1 mph - N/A   Clear
12:53 PM 81.0 °F 82.2 °F 63.0 °F 54% 30.02 in 10.0 mi SSW 9.2 mph - N/A   Clear
1:53 PM 82.0 °F 83.0 °F 62.1 °F 51% 29.99 in 10.0 mi SSW 11.5 mph 18.4 mph N/A   Clear
2:53 PM 82.0 °F 83.0 °F 62.1 °F 51% 29.96 in 10.0 mi SSW 12.7 mph 17.3 mph N/A   Clear
3:53 PM 80.1 °F 81.7 °F 64.0 °F 58% 29.97 in 10.0 mi SSW 13.8 mph 19.6 mph N/A   Clear
4:53 PM 78.1 °F - 63.0 °F 60% 29.99 in 10.0 mi SSW 11.5 mph 19.6 mph N/A   Clear
5:53 PM 75.0 °F - 64.9 °F 71% 30.00 in 10.0 mi SSW 6.9 mph - N/A   Clear
6:53 PM 73.0 °F - 66.9 °F 81% 30.01 in 10.0 mi SSW 4.6 mph - N/A   Clear
7:53 PM 73.0 °F - 68.0 °F 84% 30.02 in 10.0 mi South 3.5 mph - N/A   Clear
8:53 PM 72.0 °F - 68.0 °F 87% 30.02 in 10.0 mi South 4.6 mph - N/A   Clear
9:53 PM 72.0 °F - 68.0 °F 87% 30.01 in 10.0 mi SSW 4.6 mph - N/A   Clear
10:53 PM 73.0 °F - 66.9 °F 81% 30.02 in 10.0 mi SSW 5.8 mph - N/A   Overcast
11:53 PM 73.0 °F - 66.9 °F 81% 30.02 in 10.0 mi SW 6.9 mph - N/A   Partly Cloudy